Date String (YYYY-MM-DD hh:mm:ss) UTC,Instrument flags,Ambient pressure (hPa),Sample flow (lpm),Bypass flow (lpm),Sample temperature (°C),Ambient temperature (°C),ASC tube jacket temperature (°C),LED temperature (°C),Box temperature (°C),Sample RH (%),Span deviation,Mass concentration (μg/m³),Mass concentration (μg/m³),Mass concentration (μg/m³)
DateTimeUTC,F1_M11,P_M11,Q1_M11,Q2_M11,T1_M11,T2_M11,T3_M11,T4_M11,T5_M11,U1_M11,ZSPAN_M11,X0_M11,X2_M11,X1_M11
2022-10-23 00:00:00,,0808.7,5.01,0.00,29.6,28.4,00.0,38.4,31.6,07.7,0000.0,0007.95,0003.21,0002.57
2022-10-23 00:01:00,,0808.7,5.00,0.00,29.7,28.4,00.0,38.4,31.7,07.7,0000.0,0007.96,0003.24,0002.57
2022-10-23 00:02:00,,0808.8,5.00,0.00,29.7,28.5,00.0,38.4,31.7,07.7,0000.0,0007.76,0003.30,0002.58
2022-10-23 00:03:00,,0808.8,4.98,0.00,29.7,28.6,00.0,38.5,31.7,07.7,0000.0,0007.54,0003.29,0002.59
2022-10-23 00:04:00,,0808.9,5.01,0.00,29.8,28.7,00.0,38.5,31.7,07.7,0000.0,0007.54,0003.32,0002.61
2022-10-23 00:05:00,,0808.9,4.99,0.00,29.8,28.8,00.0,38.5,31.8,07.7,0000.0,0007.51,0003.32,0002.63
2022-10-23 00:06:00,,0808.9,5.00,0.00,29.8,28.4,00.0,38.5,31.8,07.7,0000.0,0007.56,0003.34,0002.65
2022-10-23 00:07:00,,0808.9,5.00,0.00,29.8,26.9,00.0,38.5,31.6,07.7,0000.0,0006.92,0003.38,0002.65
2022-10-23 00:08:00,,0808.9,4.99,0.00,29.8,26.4,00.0,38.4,31.6,07.7,0000.0,0007.26,0003.40,0002.66
2022-10-23 00:09:00,,0808.8,5.01,0.00,29.7,26.6,00.0,38.4,31.4,07.8,0000.0,0007.42,0003.42,0002.67
2022-10-23 00:10:00,,0808.8,4.99,0.00,29.6,26.9,00.0,38.4,31.4,07.9,0000.0,0007.33,0003.40,0002.68
2022-10-23 00:11:00,,0808.8,5.01,0.00,29.6,27.2,00.0,38.4,31.5,08.0,0000.0,0007.79,0003.43,0002.69
2022-10-23 00:12:00,,0808.8,4.99,0.00,29.6,27.5,00.0,38.4,31.5,08.1,0000.0,0008.34,0003.44,0002.70
2022-10-23 00:13:00,,0808.9,5.00,0.00,29.6,27.8,00.0,38.4,31.5,08.1,0000.0,0008.18,0003.45,0002.71
2022-10-23 00:14:00,,0808.9,5.00,0.00,29.6,28.0,00.0,38.4,31.5,07.9,0000.0,0009.00,0003.47,0002.71
2022-10-23 00:15:00,,0808.9,5.00,0.00,29.6,28.1,00.0,38.4,31.6,08.0,0000.0,0009.59,0003.48,0002.70
2022-10-23 00:16:00,,0808.9,5.01,0.00,29.7,28.3,00.0,38.4,31.6,08.0,0000.0,0010.26,0003.50,0002.68
2022-10-23 00:17:00,,0808.9,5.01,0.00,29.7,28.4,00.0,38.4,31.6,08.0,0000.0,0011.15,0003.52,0002.68
2022-10-23 00:18:00,,0808.9,4.98,0.00,29.7,28.5,00.0,38.4,31.7,07.9,0000.0,0011.66,0003.55,0002.68
2022-10-23 00:19:00,,0808.9,5.01,0.00,29.7,28.6,00.0,38.5,31.7,07.9,0000.0,0011.42,0003.55,0002.67
2022-10-23 00:20:00,,0808.9,5.00,0.00,29.8,28.6,00.0,38.5,31.7,08.0,0000.0,0011.52,0003.56,0002.67
2022-10-23 00:21:00,,0808.9,5.00,0.00,29.8,28.7,00.0,38.5,31.7,08.0,0000.0,0011.84,0003.59,0002.67
2022-10-23 00:22:00,,0808.8,5.01,0.00,29.8,28.7,00.0,38.5,31.8,08.0,0000.0,0012.27,0003.57,0002.66
2022-10-23 00:23:00,,0808.9,5.00,0.00,29.8,28.8,00.0,38.6,31.8,08.0,0000.0,0012.81,0003.60,0002.65
2022-10-23 00:24:00,,0808.8,4.99,0.00,29.9,28.5,00.0,38.6,31.8,08.0,0000.0,0012.50,0003.56,0002.65
2022-10-23 00:25:00,,0808.8,5.00,0.00,29.9,27.0,00.0,38.5,31.7,07.9,0000.0,0012.05,0003.54,0002.66
2022-10-23 00:26:00,,0808.8,5.01,0.00,29.8,26.3,00.0,38.5,31.6,07.9,0000.0,0012.65,0003.55,0002.67
2022-10-23 00:27:00,,0808.9,5.00,0.00,29.7,26.4,00.0,38.4,31.4,08.1,0000.0,0012.27,0003.58,0002.68
2022-10-23 00:28:00,,0808.9,5.00,0.00,29.6,26.7,00.0,38.4,31.4,08.0,0000.0,0012.17,0003.59,0002.69
2022-10-23 00:29:00,,0808.9,5.01,0.00,29.6,27.1,00.0,38.4,31.4,08.1,0000.0,0013.54,0003.61,0002.71
2022-10-23 00:30:00,,0808.9,4.99,0.00,29.6,27.4,00.0,38.4,31.4,08.1,0000.0,0015.45,0003.67,0002.72
2022-10-23 00:31:00,,0808.9,4.99,0.00,29.6,27.6,00.0,38.4,31.5,08.1,0000.0,0015.82,0003.72,0002.73
2022-10-23 00:32:00,,0808.9,4.99,0.00,29.6,27.8,00.0,38.4,31.5,08.1,0000.0,0016.07,0003.74,0002.74
2022-10-23 00:33:00,,0808.9,5.02,0.00,29.6,28.0,00.0,38.4,31.5,08.0,0000.0,0016.70,0003.78,0002.74
2022-10-23 00:34:00,,0808.9,4.98,0.00,29.6,28.1,00.0,38.4,31.6,07.9,0000.0,0016.18,0003.79,0002.76
2022-10-23 00:35:00,,0808.9,4.99,0.00,29.7,28.2,00.0,38.4,31.6,08.0,0000.0,0017.25,0003.87,0002.75
2022-10-23 00:36:00,,0809.0,5.01,0.00,29.7,28.3,00.0,38.5,31.6,08.0,0000.0,0017.76,0003.94,0002.74
2022-10-23 00:37:00,,0808.9,5.00,0.00,29.7,28.4,00.0,38.5,31.6,08.0,0000.0,0017.48,0004.00,0002.73
2022-10-23 00:38:00,,0808.9,4.98,0.00,29.7,28.4,00.0,38.5,31.7,07.9,0000.0,0018.68,0004.00,0002.73
2022-10-23 00:39:00,,0809.0,5.00,0.00,29.7,28.5,00.0,38.5,31.7,08.0,0000.0,0019.40,0004.09,0002.73
2022-10-23 00:40:00,,0808.9,5.00,0.00,29.8,28.6,00.0,38.5,31.7,08.0,0000.0,0018.49,0004.12,0002.73
2022-10-23 00:41:00,,0808.9,5.00,0.00,29.8,28.6,00.0,38.5,31.7,07.8,0000.0,0017.09,0004.13,0002.74
2022-10-23 00:42:00,,0808.9,4.98,0.00,29.8,28.6,00.0,38.5,31.7,07.8,0000.0,0016.59,0004.13,0002.73
2022-10-23 00:43:00,,0808.9,5.00,0.00,29.8,28.7,00.0,38.6,31.8,07.8,0000.0,0016.27,0004.08,0002.73
2022-10-23 00:44:00,,0808.9,5.02,0.00,29.9,28.7,00.0,38.6,31.8,07.6,0000.0,0014.76,0004.04,0002.72
2022-10-23 00:45:00,,0809.0,4.99,0.00,29.9,28.7,00.0,38.6,31.8,07.5,0000.0,0014.46,0003.99,0002.71
2022-10-23 00:46:00,,0809.0,5.00,0.00,29.9,28.3,00.0,38.6,31.8,07.6,0000.0,0014.06,0003.96,0002.71
2022-10-23 00:47:00,,0809.0,5.02,0.00,29.9,26.7,00.0,38.6,31.7,07.7,0000.0,0013.23,0003.90,0002.71
2022-10-23 00:48:00,,0809.1,4.99,0.00,29.8,26.3,00.0,38.5,31.6,07.7,0000.0,0012.89,0003.79,0002.71
2022-10-23 00:49:00,,0809.0,4.99,0.00,29.7,26.4,00.0,38.5,31.4,07.7,0000.0,0011.98,0003.73,0002.70
2022-10-23 00:50:00,,0809.0,5.01,0.00,29.7,26.7,00.0,38.5,31.4,07.8,0000.0,0010.81,0003.61,0002.65
2022-10-23 00:51:00,,0809.0,4.99,0.00,29.6,27.0,00.0,38.5,31.4,07.9,0000.0,0010.07,0003.56,0002.61
2022-10-23 00:52:00,,0809.1,5.00,0.00,29.6,27.3,00.0,38.4,31.4,07.9,0000.0,0010.23,0003.50,0002.57
2022-10-23 00:53:00,,0809.0,5.01,0.00,29.6,27.6,00.0,38.4,31.4,08.0,0000.0,0010.68,0003.47,0002.54
2022-10-23 00:54:00,,0809.0,5.00,0.00,29.6,27.8,00.0,38.4,31.5,08.0,0000.0,0010.98,0003.45,0002.50
2022-10-23 00:55:00,,0809.0,5.00,0.00,29.6,27.9,00.0,38.4,31.5,07.9,0000.0,0011.02,0003.43,0002.46
2022-10-23 00:56:00,,0809.0,5.00,0.00,29.6,28.0,00.0,38.4,31.5,07.9,0000.0,0010.58,0003.40,0002.42
2022-10-23 00:57:00,,0809.0,5.00,0.00,29.6,28.2,00.0,38.5,31.5,07.9,0000.0,0010.02,0003.30,0002.33
2022-10-23 00:58:00,,0809.0,5.00,0.00,29.7,28.2,00.0,38.5,31.6,08.0,0000.0,0009.52,0003.22,0002.25
2022-10-23 00:59:00,,0809.0,5.00,0.00,29.7,28.3,00.0,38.5,31.6,08.0,0000.0,0009.40,0003.21,0002.16
